Weather History for KCAK - September, 2013

Change the Weather History Date:

Wednesday, September 4, 2013

  Actual Average Record
Temperature  
Mean Temperature 66 °F 67 °F  
Max Temperature 80 °F 77 °F 95 °F (1953)
Min Temperature 52 °F 57 °F 43 °F (1997)
Degree Days  
Heating Degree Days 0 1  
Month to date heating degree days 5 4  
Since 1 July heating degree days 18 24  
Cooling Degree Days 1 4  
Month to date cooling degree days 20 16  
Year to date cooling degree days 744 598  
Growing Degree Days 16 (Base 50)    
Moisture  
Dew Point 54 °F    
Average Humidity 68    
Maximum Humidity 93    
Minimum Humidity 42    
Precipitation  
Precipitation 0.00 in 0.12 in 1.27 in (1958)
Month to date precipitation 0.61 0.48  
Year to date precipitation 27.68 27.68  
Snow  
Snow 0.00 in 0.00 in - ()
Month to date snowfall 0.0 0.0  
Since 1 July snowfall 0.0 0.0  
Since 1 September snowfall 0.0 0.0  
Snow Depth 0.00 in    
Sea Level Pressure  
Sea Level Pressure 30.09 in    
Wind  
Wind Speed 7 mph (WSW)    
Max Wind Speed 15 mph    
Max Gust Speed 20 mph    
Visibility 8 miles    
Events      
T = Trace of Precipitation, MM = Missing Value Source: NWS Daily Summary

Daily Weather History Graph

Daily Weather History Graph

Search for Another Location

Airport or City:

Trip Planner

Search our weather history database for the weather conditions in past years. The results will help you decide how hot, cold, wet, or windy it might be!

Date:

Astronomy

Sep. 04, 2013 Rise Set
Actual Time 6:55 AM EDT 7:52 PM EDT
Civil Twilight 6:27 AM EDT 8:20 PM EDT
Nautical Twilight 5:54 AM EDT 8:54 PM EDT
Astronomical Twilight 5:19 AM EDT 9:28 PM EDT
Moon 6:06 AM EDT (9/4) 7:11 PM EDT (9/4)
Length of Visible Light 13h 53m
Length of Day
12h 57m
Waning Crescent, 1% of the Moon is Illuminated
Sep 4
Waning Crescent
Sep 5
New
Sep 12
First Quarter
Sep 19
Full
Sep 26
Last Quarter

Hourly Weather History & Observations

Time (EDT) Temp. Dew Point Humidity Pressure Visibility Wind Dir Wind Speed Gust Speed Precip Events Conditions
12:51 AM 55.9 °F 53.1 °F 90% 30.06 in 5.0 mi SW 3.5 mph - N/A   Clear
1:51 AM 55.9 °F 53.1 °F 90% 30.07 in 6.0 mi WSW 5.8 mph - N/A   Clear
2:51 AM 53.1 °F 50.0 °F 89% 30.07 in 5.0 mi Calm Calm - N/A   Clear
3:51 AM 54.0 °F 51.1 °F 90% 30.07 in 5.0 mi WSW 5.8 mph - N/A   Clear
4:51 AM 54.0 °F 51.1 °F 90% 30.09 in 5.0 mi WSW 5.8 mph - N/A   Clear
5:51 AM 53.1 °F 51.1 °F 93% 30.10 in 4.0 mi WSW 5.8 mph - N/A   Clear
6:51 AM 53.1 °F 50.0 °F 89% 30.11 in 4.0 mi West 5.8 mph - N/A   Clear
7:51 AM 55.0 °F 52.0 °F 89% 30.12 in 4.0 mi WSW 4.6 mph - N/A   Clear
8:51 AM 59.0 °F 54.0 °F 83% 30.13 in 6.0 mi WSW 5.8 mph - N/A   Haze
9:51 AM 63.0 °F 55.9 °F 78% 30.13 in 7.0 mi West 6.9 mph - N/A   Clear
10:51 AM 66.9 °F 57.0 °F 70% 30.12 in 9.0 mi WSW 8.1 mph - N/A   Clear
11:51 AM 72.0 °F 57.0 °F 59% 30.12 in 10.0 mi SW 8.1 mph - N/A   Partly Cloudy
12:51 PM 73.9 °F 55.9 °F 53% 30.10 in 10.0 mi West 10.4 mph - N/A   Partly Cloudy
1:51 PM 75.0 °F 54.0 °F 48% 30.09 in 10.0 mi WSW 6.9 mph 18.4 mph N/A   Partly Cloudy
2:51 PM 77.0 °F 57.0 °F 50% 30.09 in 10.0 mi West 9.2 mph - N/A   Partly Cloudy
3:51 PM 79.0 °F 55.0 °F 44% 30.07 in 10.0 mi WNW 11.5 mph - N/A   Clear
4:51 PM 79.0 °F 54.0 °F 42% 30.07 in 10.0 mi NW 9.2 mph - N/A   Partly Cloudy
5:51 PM 77.0 °F 53.1 °F 43% 30.06 in 10.0 mi West 9.2 mph - N/A   Partly Cloudy
6:51 PM 75.9 °F 54.0 °F 46% 30.05 in 10.0 mi West 9.2 mph - N/A   Partly Cloudy
7:51 PM 71.1 °F 55.9 °F 59% 30.07 in 10.0 mi West 5.8 mph - N/A   Partly Cloudy
8:51 PM 69.1 °F 55.9 °F 63% 30.07 in 10.0 mi West 3.5 mph - N/A   Partly Cloudy
9:51 PM 66.9 °F 55.9 °F 68% 30.08 in 10.0 mi SW 3.5 mph - N/A   Partly Cloudy
10:51 PM 64.9 °F 55.9 °F 73% 30.08 in 10.0 mi SW 4.6 mph - N/A   Partly Cloudy
11:51 PM 64.0 °F 55.9 °F 75% 30.07 in 10.0 mi SW 5.8 mph - N/A   Partly Cloudy